Regional Weather Roundup
Issued by NWS

Home | Current Version | Previous Version | Text Only | Print | Product List | Glossary On
Versions: 1 2 3 4 5 6 7 8 9 10 11 12 13 14 15 16 17 18 19 20 21 22 23 24 25 26 27 28 29 30 31 32 33 34 35 36 37 38 39 40 41 42 43 44 45 46 47 48 49 50
000
ASUS44 KJAN 312010
RWRMS

MISSISSIPPI HOURLY WEATHER ROUNDUP
NATIONAL WEATHER SERVICE JACKSON MS
300 PM CDT FRI JUL 31 2015

NOTE: "FAIR: INDICATES FEW OR NO CLOUDS BELOW 12,000 FEET WITH NO
SIGNIFICANT WEATHER AND/OR OBSTRUCTIONS TO VISIBILITY.

MSZ001>002-007>008-010>013-018>021-025>028-034>036-312100-
NORTHWEST MISSISSIPPI

CITY           SKY/WX    TMP DP  RH WIND       PRES   REMARKS
CLARKSDALE     FAIR      91  64  40 N13       30.06F HX  93
CLEVELAND      FAIR      91  68  46 N13G18    30.04F HX  94
GREENWOOD      SUNNY     92  60  34 NE15G22   30.02F HX  91
GREENVILLE     SUNNY     91  68  46 N13       30.03F HX  95
OLIVE BRANCH   MOSUNNY   90  64  43 N10       30.06F HX  91
OXFORD         FAIR      90  63  40 NE9G16    30.07F HX  90
TUNICA         CLEAR     91  64  40 N7        30.06F HX  93
$$

MSZ003>006-009-014>017-022>024-029>033-037>039-312100-
NORTHEAST MISSISSIPPI

CITY           SKY/WX    TMP DP  RH WIND       PRES   REMARKS
COLUMBUS AFB   SUNNY     92  59  33 N17G25    29.99F HX  91
CORINTH        FAIR      90  64  43 N8        30.04S HX  91
GOLDN TRIANGLE SUNNY     93  57  29 NE16G23   29.99F HX  92
STARKVILLE     FAIR      90  59  35 N12G20    30.01S
TUPELO         SUNNY     91  62  37 NE15      30.03F HX  91
$$

MSZ040-058-312100-
CENTRAL MISSISSIPPI

CITY           SKY/WX    TMP DP  RH WIND       PRES   REMARKS
JACKSON INTL   SUNNY     95  52  23 N18       29.99F HX  92
JACKSON HAWKNS SUNNY     93  55  27 VRB6      30.00F HX  91
MERIDIAN KEY   SUNNY     92  58  31 N16       29.97F HX  91
MERIDIAN NAS   MOSUNNY   92  56  29 NE14      29.98F HX  90
VICKSBURG      SUNNY     93  60  33 NE9       30.01F HX  93
$$

MSZ059>079-312100-
SOUTH MISSISSIPPI

CITY           SKY/WX    TMP DP  RH WIND       PRES   REMARKS
BROOKHAVEN     FAIR      90  63  40 N12       30.00F HX  90
HATTIESBURG    SUNNY     93  70  46 N10       29.94F HX  99
MCCOMB         SUNNY     94  64  37 N14       29.96F HX  95
NATCHEZ        SUNNY     88  68  51 N10       30.00F HX  91
PINE BELT      SUNNY     93  55  27 N14G20    29.97F HX  91
$$

MSZ080>082-312100-
COASTAL MISSISSIPPI

CITY           SKY/WX    TMP DP  RH WIND       PRES   REMARKS
BAY ST LOUIS   MOSUNNY   93  72  49 NE7       29.90F HX 100
BILOXI         MOSUNNY   92  77  61 NE8       29.89F HX 107
PASCAGOULA     PTSUNNY   92  77  61 N8        29.89F HX 105
GULFPORT       MOSUNNY   94  75  54 NE8       29.89F HX 105
$$


USA.gov is the U.S. government's official web portal to all federal, state and local government web resources and services.